{"data":{"norad_id":57372,"intl_designator":"2023-099AW","name":"STARLINK-5975","alt_names":[],"object_type":"PAYLOAD","status":"ACTIVE","operator":null,"country":"US","launch_date":"2023-07-16","launch_site_code":"AFETR","launch_vehicle":null,"mission":null,"orbit_class":"UNKNOWN","rcs_meters":null,"size_class":null,"mass_kg":null,"dimensions":null,"purposes":["comms"],"wikipedia_slug":null,"has_3d_model":false,"image_url":null,"decayed_at":null,"tle_current":{"epoch":"2026-05-24T11:00:20.625984Z","epoch_age_seconds":117868,"freshness":"FRESH","line1":"1 57372U 23099AW  26144.45857206 -.00000003  00000+0  93981-5 0  9999","line2":"2 57372  43.0011 174.0628 0001028 290.2249  69.8492 15.27576980157788","mean_motion":15.2757698,"eccentricity":0.0001028,"inclination_deg":43.0011,"raan_deg":174.0628,"arg_perigee_deg":290.2249,"mean_anomaly_deg":69.8492,"bstar":9.3981e-6,"rev_number":15778,"period_min":94.266935077799,"perigee_km":482.3528081607,"apogee_km":483.76346988128,"semimajor_km":6861.195139021,"source":"CELESTRAK","updated_at":"2026-05-25T13:38:18.295165Z"}}}